Alabaster, AL

6:28 PM CST on December 15, 2019 (GMT -0600)
Shelby County

Weather History for KEET - November, 2019

Change the Weather History Date:

Saturday, November 16, 2019

  Actual Average Record
Temperature  
Mean Temperature 48 °F 55 °F  
Max Temperature 61 °F 66 °F 82 °F (1958)
Min Temperature 35 °F 43 °F 22 °F (1967)
Degree Days  
Heating Degree Days 17 11  
Month to date heating degree days 256 142  
Since 1 July heating degree days 341 265  
Moisture  
Dew Point 33 °F    
Average Humidity 64    
Maximum Humidity 92    
Minimum Humidity 36    
Precipitation  
Precipitation 0.00 in 0.18 in 3.84 in (1954)
Month to date precipitation 1.19 2.56  
Year to date precipitation 40.61 47.49  
Snow  
Snow 0.00 in - - ()
Month to date snowfall 0.0  
Since 1 July snowfall 0.0  
Since 1 September snowfall 0.0  
Snow Depth 0.00 in    
Sea Level Pressure  
Sea Level Pressure 30.10 in    
Wind  
Wind Speed 4 mph (NNW)    
Max Wind Speed 8 mph    
Max Gust Speed 13 mph    
Visibility 10 miles    
Events      
T = Trace of Precipitation, MM = Missing Value Source: NWS Daily Summary

Daily Weather History Graph

Daily Weather History Graph

Search for Another Location

Airport or City:

Astronomy

Nov. 16, 2019 Rise Set
Actual Time 6:18 AM CST 4:44 PM CST
Civil Twilight 5:52 AM CST 5:10 PM CST
Nautical Twilight 5:22 AM CST 5:40 PM CST
Astronomical Twilight 4:53 AM CST 6:10 PM CST
Moon 8:22 PM CST 10:06 AM CST
Length of Visible Light 11h 18m
Length of Day
10h 25m
Waning Gibbous, 82% of the Moon is Illuminated
Nov 16
Waning Gibbous
Nov 19
Last Quarter
Nov 26
New
Dec 4
First Quarter
Dec 11
Full

Hourly Weather History & Observations

Time (CST) Temp. Windchill Dew Point Humidity Pressure Visibility Wind Dir Wind Speed Gust Speed Precip Events Conditions
12:53 AM 39.9 °F 34.5 °F 28.9 °F 65% 30.12 in 10.0 mi North 8.1 mph - N/A   Clear
1:53 AM 39.0 °F 35.7 °F 28.9 °F 67% 30.12 in 10.0 mi Variable 4.6 mph - N/A   Clear
2:53 AM 37.9 °F 33.5 °F 28.9 °F 70% 30.12 in 10.0 mi Variable 5.8 mph - N/A   Clear
3:53 AM 37.0 °F 32.4 °F 28.9 °F 73% 30.12 in 10.0 mi Variable 5.8 mph - N/A   Clear
4:53 AM 36.0 °F 31.1 °F 28.9 °F 76% 30.12 in 10.0 mi NNW 5.8 mph - N/A   Clear
5:53 AM 35.1 °F 31.0 °F 28.9 °F 78% 30.13 in 10.0 mi NNW 4.6 mph - N/A   Clear
6:53 AM 35.1 °F 32.2 °F 28.9 °F 78% 30.15 in 8.0 mi NNW 3.5 mph - N/A   Clear
7:53 AM 39.0 °F 34.0 °F 30.0 °F 70% 30.16 in 9.0 mi NW 6.9 mph - N/A   Clear
8:53 AM 44.1 °F 41.5 °F 32.0 °F 63% 30.15 in 10.0 mi NW 4.6 mph - N/A   Clear
9:53 AM 50.0 °F - 33.1 °F 52% 30.15 in 10.0 mi Variable 3.5 mph - N/A   Clear
10:53 AM 52.0 °F - 34.0 °F 50% 30.14 in 10.0 mi NW 9.2 mph - N/A   Clear
11:53 AM 55.0 °F - 35.1 °F 47% 30.10 in 10.0 mi Variable 3.5 mph - N/A   Clear
12:53 PM 57.9 °F - 35.1 °F 42% 30.07 in 10.0 mi Variable 4.6 mph - N/A   Clear
1:53 PM 60.1 °F - 36.0 °F 41% 30.06 in 10.0 mi North 5.8 mph - N/A   Clear
2:53 PM 60.1 °F - 34.0 °F 38% 30.05 in 10.0 mi Variable 5.8 mph - N/A   Clear
3:53 PM 59.0 °F - 34.0 °F 39% 30.06 in 10.0 mi NNW 6.9 mph - N/A   Clear
4:53 PM 53.1 °F - 34.0 °F 48% 30.07 in 10.0 mi Calm Calm - N/A   Clear
5:53 PM 46.0 °F - 35.1 °F 66% 30.09 in 10.0 mi Calm Calm - N/A   Clear
6:53 PM 43.0 °F - 36.0 °F 76% 30.09 in 10.0 mi Calm Calm - N/A   Clear
7:53 PM 42.1 °F - 35.1 °F 76% 30.08 in 10.0 mi Calm Calm - N/A   Clear
8:53 PM 39.9 °F - 35.1 °F 83% 30.09 in 10.0 mi Calm Calm - N/A   Clear
9:53 PM 37.9 °F - 34.0 °F 86% 30.08 in 10.0 mi Calm Calm - N/A   Clear
10:53 PM 36.0 °F - 33.1 °F 89% 30.08 in 10.0 mi Calm Calm - N/A   Clear